Overview Statistics Trail Chart Weather Telemetry Raw packets
 

This is the latest recevied weather packets stored in our database for station/object KC9DRE. If no packets are shown the sender has not sent any weather packets the latest 10 day(s).

<< 24 25 26 27 28 29 30 >>
Time Temp. Humidity Pressure Rain* Wind** Luminosity Snow
1777745218 14.44° C 46% 1018.2 hPa 0 mm - 439 W/m² -
1777744916 13.33° C 52% 1018 hPa 0 mm - 1021 W/m² -
1777744615 12.78° C 53% 1018.2 hPa 0 mm - 225 W/m² -
1777744310 13.33° C 49% 1018.3 hPa 0 mm - 597 W/m² -
1777744008 13.33° C 50% 1018.4 hPa 0 mm - 271 W/m² -
1777743704 13.33° C 52% 1018.5 hPa 0 mm - 534 W/m² -
1777743402 13.33° C 56% 1018.5 hPa 0 mm - 379 W/m² -
1777743100 13.33° C 54% 1018.5 hPa 0 mm - 365 W/m² -
1777742797 13.89° C 49% 1018.3 hPa 0 mm - 354 W/m² -
1777742493 13.33° C 52% 1018.4 hPa 0 mm - 404 W/m² -
1777742189 12.22° C 57% 1018.4 hPa 0 mm - 938 W/m² -
1777741886 12.22° C 58% 1018.6 hPa 0 mm - 328 W/m² -
1777741584 11.67° C 56% 1018.7 hPa 0 mm - 270 W/m² -
1777741280 12.22° C 51% 1018.9 hPa 0 mm - 173 W/m² -
1777740976 12.22° C 55% 1018.7 hPa 0 mm - 210 W/m² -
1777740674 12.78° C 53% 1018.7 hPa 0 mm - 244 W/m² -
1777740370 13.33° C 51% 1019 hPa 0 mm - 277 W/m² -
1777740069 13.89° C 51% 1019 hPa 0 mm - 366 W/m² -
1777739763 13.33° C 55% 1018.9 hPa 0 mm - 492 W/m² -
1777739459 13.89° C 48% 1018.8 hPa 0 mm - 461 W/m² -
1777739156 13.33° C 54% 1019 hPa 0 mm - 434 W/m² -
1777738853 12.22° C 55% 1019.1 hPa 0 mm - 557 W/m² -
1777738550 11.67° C 63% 1019.1 hPa 0 mm - 460 W/m² -
1777738248 11.67° C 57% 1019.1 hPa 0 mm - 469 W/m² -
1777737946 11.67° C 53% 1019.2 hPa 0 mm - 376 W/m² -

* Rain latest hour (hover to see other rain measurements)
** Current wind speed in m/s (hover to see current wind gust speed)